Tracking 25648 objects as of 17-May-2022
HD Live streaming from Space Station
objects crossing your sky now

COSMOS 2251 DEB

Track COSMOS 2251 DEB now!
10-day predictions


NORAD ID: 36424
Int'l Code: 1993-036AZX
Perigee: 717.4 km
Apogee: 867.6 km
Inclination: 74.2 °
Period: 100.6 minutes
Semi major axis: 7163 km
RCS: 0.0035 m2 (small)
Launch date: June 16, 1993
Source: Commonwealth of Independent States (former USSR) (CIS)
Launch site: PLESETSK MISSILE AND SPACE COMPLEX (PKMTR)

Note: This is SATELLITE DEBRIS
aabbcc
Your satellite tracking list
Your tracking list is empty




NASA's NSSDC Master Catalog

Two Line Element Set (TLE):
1 36424U 93036AZX 22137.21072407  .00006979  00000-0  24590-2 0  9991
2 36424  74.1828  62.3713 0104862 236.2003 122.9130 14.31911357651162
Source of the keplerian elements: AFSPC